CAPE
0 0 0 0 0 0 0 0 0 9 20 27 18 3 1 1 1 1 0 0 0 0
0 0 0 0 0 0 0 0 0 0 4 4 10 9 6 2 1 1 1 0 1 1
0 0 0 0 0 0 0 0 0 1 3 6 8 9 9 5 1 1 1 1 0 0
0 0 0 0 0 3 7 2 1 4 3 2 3 3 2 2 1 0 0 0 1 0
0 0 0 1 9 11 7 5 0 0 0 2 2 2 3 1 1 1 0 0 0 0
0 0 0 2 0 0 2 1 1 0 0 0 0 3 1 1 0 0 0 1 0 0
0 0 0 0 0 0 1 2 2 0 1 0 1 2 1 1 0 0 0 0 0 0
0 0 0 0 0 1 0 0 1 0 1 2 1 1 1 1 1 1 1 1 0 0
0 0 0 0 0 1 2 0 0 1 0 2 2 0 0 0 0 0 0 0 0 0
0 0 1 1 1 1 3 2 2 1 2 1 1 0 1 0 0 0 0 1 1 1
2 0 1 1 1 2 4 2 1 2 1 1 1 1 1 1 1 1 1 1 1 2
4 3 2 2 2 2 2 1 1 1 1 1 1 2 1 2 2 1 0 0 1 1
0 0 1 1 1 1 4 2 2 0 2 1 3 1 1 1 0 2 3 1 1 1
0 0 1 3 2 2 3 3 2 2 1 1 1 1 0 1 1 1 2 2 2 1
CIN
0 0 0 0 0 0 0 0 -0 -1 -9 -0 -0 0 0 0 0 0 0 0 0 0
0 0 0 0 0 0 0 0 0 -0 -2 -5 -6 -3 -1 0 0 0 0 0 -0 -2
0 0 0 0 0 0 0 -0 -0 -0 -0 -0 -0 -0 -2 -0 0 0 0 0 0 0
0 0 0 0 0 -1 -1 -0 -0 0 -0 -1 -0 -0 0 0 0 0 0 0 0 0
0 0 0 -1 -2 -1 -0 -0 -0 -0 -0 -0 0 0 0 0 0 0 0 0 0 0
0 0 -0 -4 -0 -0 -0 -0 -0 -0 0 0 0 0 0 0 0 0 0 0 0 0
0 -1 0 0 -0 -0 -0 -0 -0 -0 0 0 -0 0 0 0 0 0 0 0 0 0
-0 0 0 0 0 -0 -0 0 0 0 -0 0 0 0 0 0 0 0 0 0 0 0
0 -0 0 -0 -0 0 0 0 0 0 -0 0 0 0 0 0 0 0 0 0 0 0
-0 0 -0 -0 -0 0 0 0 0 0 0 0 0 0 0 0 0 0 0 0 0 0
-0 -0 -0 -0 -0 0 0 0 0 0 0 0 0 0 0 0 0 0 0 0 0 0
-0 -0 -0 0 -0 0 0 0 0 0 0 0 0 0 0 0 0 0 0 0 0 0
0 0 -0 0 0 -0 0 0 0 0 0 0 0 0 0 0 -0 0 0 0 0 0
0 0 0 0 0 0 0 0 0 0 0 0 0 0 0 -0 0 -0 0 0 0 0
Wind_Speed
33 34 34 34 34 35 35 35 34 34 34 34 34 34 35 38 39 40 42 42 41 40
34 35 36 35 34 33 33 34 34 36 38 38 37 37 38 38 39 39 40 42 44 44
35 35 35 34 35 36 36 36 37 38 39 40 40 40 40 42 41 42 42 42 44 43
34 33 34 35 35 36 36 38 38 38 39 41 43 43 44 45 45 46 47 46 46 46
34 33 33 33 33 34 36 36 36 37 39 42 43 44 45 46 45 46 47 48 46 46
35 34 34 34 34 34 34 35 35 36 38 40 41 42 42 42 44 44 44 45 45 43
34 32 31 33 32 31 31 33 34 34 35 36 37 36 36 35 36 38 38 38 38 42
30 31 31 29 29 28 29 30 30 30 29 29 30 30 31 32 31 28 28 27 29 27
31 28 27 26 27 27 27 26 23 23 26 28 27 25 27 28 27 24 22 19 20 18
27 25 24 24 24 23 21 19 20 22 22 24 25 27 27 26 23 21 19 17 14 12
25 24 23 22 21 17 18 19 19 19 21 22 24 24 23 23 22 21 18 16 14 11
24 24 20 14 14 17 18 18 18 18 19 20 21 20 19 20 20 20 19 18 16 13
21 17 14 15 15 16 16 16 16 17 18 18 18 19 19 19 17 18 18 18 16 14
15 23 19 13 14 14 15 16 17 17 17 17 17 17 17 17 17 16 16 16 16 14
Wind_Direction
313 312 311 309 308 308 306 306 306 303 299 295 293 291 288 283 280 275 271 268 263 263
312 311 310 309 309 308 309 307 306 304 302 300 298 293 290 286 282 278 274 271 270 267
313 313 311 309 307 306 305 306 305 304 303 301 300 297 293 290 287 283 278 274 268 266
315 313 312 309 309 308 309 309 308 307 306 304 302 300 296 292 289 284 281 277 272 266
316 315 313 311 312 312 311 312 312 312 310 309 307 304 300 295 291 286 282 278 274 269
315 313 311 313 314 315 315 316 316 317 316 315 313 311 307 302 297 292 287 281 274 269
314 315 315 315 316 317 319 320 321 322 322 321 320 318 316 312 305 298 292 287 281 268
316 316 316 316 318 320 322 324 326 327 332 335 333 329 327 323 316 311 306 297 280 280
317 318 318 319 319 321 323 326 333 336 335 335 342 344 343 339 339 329 320 314 291 293
319 318 319 320 321 324 332 334 332 332 338 340 338 340 349 354 357 348 341 328 320 310
317 317 318 320 322 332 333 330 329 334 341 344 343 349 352 1 14 12 1 355 3 341
316 316 321 328 332 328 326 328 330 342 349 347 352 11 19 19 18 11 4 357 349 350
323 329 326 317 324 326 326 333 339 340 342 354 3 12 14 14 20 20 7 356 357 3
328 301 301 324 324 326 329 332 325 328 336 349 15 27 28 22 18 14 9 13 4 349